Wind_Speed
20 18 18 17 17 18 19 20 24 27 28 32 32 33 34 34 30 32 34 32 24 23 23 23 24 24 22 21 22 21 20 21 22 19 19 20 20 19 21 22 24 20 16 17 22
19 17 18 17 18 20 20 22 24 26 28 30 32 34 36 35 30 28 32 32 26 22 22 22 23 22 22 20 20 21 21 21 21 20 18 17 17 18 19 20 20 19 17 16 15
19 18 18 18 21 21 21 23 25 27 29 30 34 36 37 37 29 25 29 32 28 22 21 21 22 20 21 21 22 23 22 21 21 22 23 20 18 17 19 20 20 20 19 16 15
22 22 22 22 22 22 23 26 28 29 30 31 34 36 38 39 29 23 26 30 28 24 20 19 19 18 17 18 19 21 22 24 26 26 25 25 24 24 22 21 19 18 19 18 14
26 26 24 25 26 26 25 27 30 32 33 32 34 37 38 37 30 25 24 28 28 25 20 18 16 15 14 14 15 18 21 22 23 25 28 29 26 24 24 23 22 22 22 20 18
28 29 27 27 28 27 26 29 32 34 34 34 35 36 38 35 28 23 25 28 29 26 23 20 16 15 11 10 12 14 16 20 21 22 24 28 26 26 27 28 26 24 21 22 19
29 29 28 28 29 28 28 32 34 35 36 36 36 37 37 34 28 24 23 26 30 29 25 23 21 18 16 13 12 12 15 18 20 20 20 24 27 28 27 29 29 26 24 20 21
30 29 29 29 31 31 32 34 35 36 37 37 38 39 39 35 30 26 26 27 30 30 27 25 24 23 21 19 16 15 16 16 19 21 20 20 24 26 26 26 26 27 27 24 21
33 32 31 32 32 35 35 36 38 39 39 40 40 42 41 37 32 29 29 29 28 29 28 27 26 27 25 24 21 18 18 18 19 19 21 23 23 22 24 24 25 27 28 29 25
35 35 35 36 37 38 39 39 41 42 41 42 44 45 43 39 34 33 33 33 30 30 29 27 28 29 28 28 26 24 22 22 22 22 21 22 22 23 27 28 23 25 27 28 28
40 41 41 41 42 41 41 43 44 45 45 46 47 48 46 41 38 36 36 36 34 33 30 28 31 31 31 31 30 29 28 28 29 28 27 26 26 30 31 35 36 35 33 31 28
47 45 44 44 45 45 46 46 48 49 50 50 50 50 47 43 40 39 40 38 37 38 33 30 32 34 34 33 33 33 32 31 33 34 34 34 32 34 37 37 37 36 37 34 33
52 51 50 50 50 51 50 50 51 52 52 53 53 51 47 45 43 42 42 41 41 39 34 32 33 36 36 36 35 35 36 34 35 37 38 38 37 35 36 37 37 36 37 35 34
56 55 55 56 55 54 54 54 55 55 54 52 53 51 48 47 46 45 44 44 43 39 36 34 34 35 37 37 37 38 38 37 36 38 39 39 40 40 42 42 43 42 41 40 38
58 58 59 60 61 59 58 57 56 58 56 55 55 54 52 50 48 48 48 46 43 40 36 35 36 36 37 38 38 37 37 37 37 39 41 40 41 43 45 45 44 45 45 44 42
62 60 59 61 59 58 59 58 58 58 59 58 57 56 55 54 52 51 49 46 43 39 36 36 37 37 37 37 37 37 38 39 41 41 43 44 46 48 48 48 48 48 47 47 46
64 65 63 62 61 61 61 61 61 62 61 61 61 59 56 52 50 49 46 43 40 38 35 36 37 37 37 38 37 38 40 40 41 44 47 49 52 50 49 50 50 48 49 48 49
64 65 66 67 65 63 63 62 62 61 62 61 60 57 54 50 48 45 41 38 36 37 36 36 37 38 39 37 38 40 42 43 44 48 52 55 55 55 54 52 51 48 48 50 50
67 65 64 64 63 61 60 59 58 58 57 56 55 51 47 45 42 41 38 35 35 36 38 40 40 39 39 39 41 43 47 49 51 52 54 56 56 58 54 54 55 54 53 51 51
64 62 60 60 59 58 57 55 55 54 52 51 47 45 42 41 40 38 37 36 38 40 42 43 43 45 47 49 50 52 53 54 55 55 55 55 55 58 55 56 57 60 59 58 55
64 61 60 59 59 59 56 53 50 49 46 46 44 43 42 41 40 39 39 40 42 44 46 47 50 51 55 56 56 56 58 59 59 59 58 55 56 59 56 57 60 61 62 62 62
65 61 60 59 58 58 57 55 51 50 49 47 46 44 43 43 44 45 46 47 48 50 52 54 54 56 58 59 60 61 63 63 60 59 60 59 59 61 59 59 61 62 63 64 62
63 62 62 62 62 62 62 60 57 56 55 54 54 54 53 52 53 54 56 56 55 56 55 55 56 58 59 60 60 61 64 65 62 62 62 62 63 66 61 63 63 61 64 63 63
68 67 68 67 67 66 64 63 62 60 59 59 58 59 58 58 59 60 62 61 60 59 58 57 58 58 59 59 60 62 64 67 66 65 63 68 63 70 67 66 64 63 63 62 60
71 71 70 69 69 68 67 65 65 64 62 60 59 59 59 60 60 62 62 61 61 60 60 59 58 59 60 62 63 64 67 71 69 69 67 69 70 72 73 70 70 67 63 60 56
76 75 72 70 71 73 72 70 71 70 70 68 66 64 64 64 64 65 66 65 64 64 65 64 63 64 62 66 66 66 71 71 72 73 73 72 75 76 75 73 72 68 63 57 52
83 79 80 79 78 78 77 77 75 75 74 72 71 70 69 69 69 69 69 69 68 69 70 68 69 67 67 70 70 71 74 75 76 76 76 76 77 76 77 74 69 66 54 46 44
Wind_Direction
251 257 263 276 281 292 306 313 323 328 331 329 339 351 358 0 359 5 7 9 7 6 13 14 18 20 25 27 23 26 24 23 29 24 16 6 3 1 347 340 335 330 315 269 259
248 255 263 271 279 285 298 306 316 320 322 325 333 347 354 357 355 2 6 7 5 1 6 10 14 22 28 28 26 23 24 24 24 33 30 17 5 356 352 351 343 334 330 320 294
247 254 264 272 276 285 295 302 309 311 314 323 332 342 350 352 352 356 3 6 4 358 356 3 7 21 28 27 27 29 24 21 23 26 33 33 18 3 357 357 352 353 351 334 321
248 257 263 268 275 281 291 298 300 305 310 320 330 339 346 350 353 349 354 1 2 354 349 352 1 4 20 22 17 24 21 23 24 24 25 25 20 13 12 4 358 357 355 351 338
250 257 263 268 272 278 286 291 295 299 306 316 328 335 342 346 348 344 349 354 357 350 342 335 347 350 359 10 14 15 14 13 20 23 25 24 18 8 3 4 358 350 340 344 345
252 257 264 269 270 274 282 287 291 295 303 314 324 331 338 342 344 342 342 346 350 348 340 327 325 328 331 338 354 357 1 355 2 11 22 28 12 7 360 357 357 351 343 331 332
255 260 262 266 270 272 277 282 286 294 303 311 319 326 332 337 337 337 338 340 341 341 337 324 318 311 312 313 316 328 334 340 341 350 6 14 12 6 359 352 349 346 343 333 323
252 257 262 264 267 273 277 280 287 295 302 308 315 320 325 328 329 332 332 332 333 332 329 320 311 305 303 304 311 315 321 337 333 334 348 2 3 4 356 348 341 339 338 333 330
254 257 262 264 267 273 277 282 287 293 299 305 311 313 320 321 322 325 324 326 326 326 324 313 305 300 299 298 301 312 322 329 325 331 338 346 342 349 352 350 339 336 331 327 327
255 257 260 265 268 272 277 282 288 291 297 303 307 310 315 318 318 318 320 321 321 320 316 306 300 298 297 297 298 302 307 312 316 322 329 335 331 331 340 346 343 335 330 326 322
254 257 260 264 269 272 277 282 285 289 294 300 304 307 309 310 313 312 313 316 316 315 310 296 289 293 292 293 297 298 302 305 310 315 319 322 325 332 337 338 342 338 331 324 317
257 258 261 265 270 274 278 280 284 288 292 297 301 303 306 307 308 307 310 310 310 311 306 294 288 288 289 290 292 296 300 305 311 314 316 320 327 333 330 331 333 327 324 321 317
259 261 264 266 270 273 276 280 284 287 292 295 298 299 302 304 303 305 307 306 305 306 302 293 283 281 283 284 288 291 297 303 306 310 313 316 318 320 320 322 322 321 323 320 315
260 263 266 270 271 274 276 281 284 287 290 293 295 297 298 299 301 303 303 304 304 301 297 290 284 281 283 285 288 291 294 297 301 305 307 310 314 315 317 320 321 322 321 318 315
264 267 269 270 273 275 279 281 284 287 289 290 291 293 296 298 299 300 302 303 301 298 291 283 281 280 280 283 287 290 294 297 299 301 302 304 309 311 313 316 317 317 316 313 311
264 267 269 273 275 276 278 280 283 285 287 287 288 290 293 296 296 297 298 298 297 291 284 278 278 279 281 283 288 294 298 299 299 300 303 307 308 310 312 314 313 313 312 311 308
265 267 269 271 273 275 277 279 281 283 283 285 285 287 290 292 293 294 295 296 292 285 278 277 278 280 281 284 287 291 294 296 299 303 304 305 305 307 308 311 311 311 310 307 306
266 269 271 273 274 275 276 277 278 279 280 282 284 286 287 288 290 290 290 289 282 279 277 275 276 280 283 287 291 293 294 296 299 302 304 305 305 306 309 309 307 306 303 301 300
266 268 270 272 273 274 276 277 277 278 280 281 281 281 283 283 283 282 281 277 274 273 275 277 281 285 288 289 291 293 296 298 300 301 301 301 303 304 307 306 306 304 302 300 299
266 267 270 271 272 273 274 275 277 279 279 280 279 278 278 279 277 273 271 270 271 273 277 281 286 290 292 294 296 298 299 299 296 296 298 300 302 301 305 306 306 305 306 303 300
268 268 267 267 270 271 272 273 274 276 277 277 277 277 277 274 272 270 270 272 275 278 281 284 289 292 294 296 297 296 295 293 296 300 301 302 304 302 305 306 306 306 306 305 302
263 264 265 267 269 271 272 272 273 274 275 276 277 276 276 276 275 276 276 276 277 279 282 286 288 290 291 292 293 293 293 294 297 299 300 302 303 304 304 307 306 307 304 303 300
262 264 265 265 267 269 271 272 273 273 274 274 275 276 276 277 276 277 277 278 278 280 283 286 287 287 287 287 289 291 293 295 297 299 299 301 302 302 305 305 305 303 301 300 298
261 262 264 266 267 269 271 273 273 274 274 275 275 276 277 277 277 277 277 279 280 280 281 281 282 283 284 286 288 290 293 294 296 297 300 301 306 305 306 305 305 303 301 301 298
264 265 266 267 268 270 272 273 275 276 276 276 276 277 278 278 278 279 279 280 280 282 282 282 283 282 285 287 288 291 293 294 297 299 302 304 306 307 308 309 308 306 303 301 296
263 263 264 265 268 270 271 272 274 275 275 275 275 275 277 278 278 279 281 282 283 283 283 284 283 285 286 286 289 292 292 295 297 300 303 306 306 308 309 309 306 305 303 300 294
260 260 261 262 263 265 267 269 270 271 272 273 275 276 277 278 278 279 280 282 283 284 284 284 284 285 287 289 292 293 294 296 299 300 302 305 306 309 308 307 305 304 302 296 290
Height
11012 11014 11014 11014 11013 11013 11012 11011 11011 11009 11007 11004 11002 11001 10999 10996 10992 10989 10985 10981 10977 10974 10971 10969 10967 10966 10963 10960 10958 10957 10954 10952 10950 10947 10946 10944 10943 10942 10939 10936 10933 10935 10935 10934 10932
11010 11011 11011 11011 11011 11011 11011 11010 11009 11008 11006 11004 11001 10999 10997 10994 10991 10988 10985 10981 10978 10975 10972 10970 10968 10966 10964 10961 10959 10956 10954 10953 10951 10950 10948 10946 10944 10941 10938 10936 10934 10931 10930 10930 10930
11007 11008 11009 11009 11009 11008 11008 11007 11007 11006 11004 11002 11000 10997 10995 10993 10990 10987 10985 10981 10978 10976 10973 10970 10968 10967 10965 10962 10959 10957 10955 10953 10951 10950 10949 10948 10945 10942 10940 10938 10936 10932 10929 10928 10927
11004 11005 11006 11006 11006 11005 11005 11005 11004 11003 11001 11000 10998 10996 10993 10991 10988 10987 10984 10981 10977 10975 10974 10972 10969 10967 10966 10963 10960 10958 10956 10953 10951 10949 10948 10947 10943 10940 10937 10934 10931 10927 10926 10925 10924
11000 11001 11002 11002 11003 11002 11002 11001 11000 10999 10998 10997 10996 10994 10991 10989 10986 10984 10982 10980 10977 10974 10973 10972 10970 10968 10966 10964 10961 10959 10956 10954 10952 10951 10948 10945 10942 10938 10935 10933 10929 10925 10923 10922 10921
10997 10997 10998 10999 10999 10999 10999 10997 10996 10994 10993 10993 10992 10991 10989 10987 10985 10983 10979 10977 10976 10973 10971 10970 10970 10967 10966 10964 10962 10960 10958 10954 10953 10951 10950 10946 10941 10938 10933 10929 10927 10925 10923 10921 10921
10993 10993 10994 10994 10994 10994 10994 10993 10991 10990 10989 10988 10988 10987 10986 10985 10983 10981 10979 10975 10972 10970 10968 10966 10965 10965 10964 10963 10962 10960 10957 10954 10952 10951 10949 10945 10942 10937 10933 10927 10924 10923 10922 10920 10918
10988 10988 10989 10990 10989 10989 10989 10988 10987 10986 10985 10984 10983 10983 10982 10980 10979 10978 10975 10973 10970 10967 10965 10962 10960 10960 10959 10958 10958 10957 10955 10953 10950 10947 10947 10944 10941 10937 10934 10930 10925 10921 10918 10917 10916
10982 10983 10983 10983 10983 10983 10983 10983 10982 10981 10980 10980 10979 10977 10977 10975 10974 10973 10971 10969 10966 10964 10961 10958 10957 10954 10954 10953 10952 10952 10950 10948 10946 10945 10942 10939 10937 10936 10933 10930 10923 10918 10914 10911 10910
10975 10977 10978 10977 10977 10977 10977 10977 10976 10975 10974 10974 10972 10972 10971 10970 10968 10967 10965 10963 10961 10959 10957 10954 10952 10949 10949 10947 10946 10945 10945 10944 10941 10941 10940 10937 10935 10931 10926 10924 10922 10917 10912 10907 10903
10968 10970 10971 10970 10969 10971 10971 10971 10969 10968 10968 10968 10966 10965 10964 10963 10962 10959 10958 10956 10954 10953 10951 10948 10945 10944 10943 10942 10940 10939 10938 10937 10934 10933 10933 10933 10928 10922 10919 10914 10910 10907 10905 10900 10898
10961 10962 10963 10964 10963 10964 10964 10964 10963 10962 10961 10960 10959 10958 10957 10955 10954 10952 10951 10950 10948 10946 10943 10940 10938 10937 10936 10936 10934 10932 10931 10930 10927 10924 10923 10920 10919 10915 10910 10909 10907 10904 10898 10895 10891
10953 10954 10954 10956 10956 10956 10956 10956 10955 10954 10954 10953 10951 10949 10949 10947 10945 10944 10943 10942 10939 10938 10937 10934 10931 10930 10930 10930 10928 10926 10924 10924 10922 10918 10915 10913 10910 10911 10909 10908 10904 10899 10895 10890 10886
10944 10944 10945 10946 10948 10947 10948 10948 10946 10946 10946 10945 10942 10941 10941 10938 10937 10936 10934 10933 10930 10929 10926 10925 10924 10923 10922 10921 10921 10920 10919 10918 10916 10913 10910 10907 10904 10902 10900 10897 10892 10889 10885 10881 10879
10934 10935 10935 10936 10937 10938 10939 10939 10938 10935 10936 10935 10932 10931 10931 10929 10928 10926 10925 10923 10921 10919 10918 10915 10915 10915 10914 10914 10913 10913 10912 10910 10908 10905 10903 10902 10898 10894 10891 10889 10885 10880 10875 10871 10868
10922 10924 10925 10925 10926 10927 10927 10928 10927 10926 10924 10923 10921 10921 10921 10920 10918 10916 10915 10914 10912 10909 10908 10906 10905 10906 10907 10906 10905 10904 10903 10901 10898 10896 10893 10890 10886 10884 10882 10878 10874 10869 10865 10860 10856
10912 10910 10912 10913 10914 10914 10915 10916 10916 10914 10911 10910 10909 10910 10912 10910 10908 10906 10906 10904 10901 10899 10899 10897 10897 10897 10897 10898 10899 10898 10895 10893 10890 10886 10883 10880 10875 10874 10872 10869 10865 10859 10854 10849 10844
10900 10899 10899 10899 10901 10903 10902 10903 10902 10902 10899 10898 10898 10899 10899 10899 10897 10896 10896 10894 10892 10888 10888 10888 10888 10888 10888 10890 10890 10888 10886 10883 10881 10878 10872 10866 10862 10860 10858 10857 10854 10851 10845 10838 10834
10886 10887 10886 10885 10886 10888 10889 10890 10888 10887 10887 10887 10886 10888 10886 10886 10886 10885 10884 10885 10882 10880 10878 10877 10879 10880 10880 10881 10880 10879 10875 10873 10869 10866 10862 10857 10853 10846 10848 10843 10837 10834 10830 10826 10820
10870 10873 10872 10871 10871 10873 10875 10876 10876 10874 10875 10875 10875 10876 10875 10875 10874 10874 10874 10874 10872 10871 10869 10869 10869 10868 10868 10866 10866 10864 10862 10860 10857 10855 10853 10848 10843 10835 10836 10830 10823 10815 10810 10804 10802
10851 10856 10857 10857 10857 10857 10860 10862 10864 10863 10863 10862 10863 10864 10863 10863 10863 10864 10864 10865 10863 10863 10861 10861 10859 10859 10854 10852 10851 10850 10847 10844 10841 10839 10836 10836 10829 10824 10824 10818 10809 10801 10794 10787 10781
10835 10839 10840 10843 10844 10844 10846 10849 10852 10852 10851 10851 10852 10853 10853 10853 10852 10853 10852 10852 10853 10852 10851 10850 10850 10846 10843 10840 10836 10833 10828 10827 10827 10825 10820 10820 10815 10811 10809 10805 10797 10788 10779 10771 10765
10819 10823 10825 10827 10829 10831 10832 10834 10837 10838 10838 10838 10838 10838 10839 10840 10839 10838 10836 10837 10839 10839 10840 10840 10837 10833 10831 10826 10822 10819 10813 10810 10812 10811 10807 10805 10801 10792 10795 10787 10783 10776 10762 10754 10745
10804 10807 10808 10811 10813 10815 10817 10818 10819 10822 10823 10823 10824 10824 10825 10825 10824 10824 10821 10822 10823 10825 10825 10825 10823 10820 10816 10813 10810 10806 10800 10794 10796 10796 10795 10785 10788 10772 10773 10770 10764 10756 10746 10738 10728
10786 10790 10792 10795 10795 10797 10799 10802 10802 10804 10806 10808 10809 10809 10809 10809 10808 10806 10805 10806 10807 10808 10808 10808 10808 10804 10801 10799 10797 10793 10785 10778 10778 10776 10777 10771 10766 10758 10751 10746 10739 10732 10725 10717 10710
10767 10770 10773 10778 10779 10779 10780 10784 10785 10787 10789 10791 10793 10794 10793 10793 10793 10790 10789 10790 10790 10791 10790 10790 10789 10789 10787 10781 10782 10780 10768 10765 10762 10759 10757 10755 10747 10739 10731 10727 10719 10712 10706 10699 10693
10746 10751 10754 10759 10762 10762 10763 10765 10766 10766 10769 10773 10775 10776 10777 10777 10776 10775 10774 10774 10775 10771 10771 10772 10772 10773 10771 10763 10763 10759 10750 10748 10744 10739 10739 10736 10727 10721 10711 10706 10702 10693 10690 10684 10678